Regional Weather Roundup
Issued by NWS

Home | Current Version | Previous Version | Text Only | Print | Product List | Glossary Off
Versions: 1 2 3 4 5 6 7 8 9 10 11 12 13 14 15 16 17 18 19 20 21 22 23 24 25 26 27 28 29 30 31 32 33 34 35 36 37 38 39 40 41 42 43 44 45 46 47 48 49

000
ASUS45 KSLC 231510
RWRUT

UTAH REGIONAL WEATHER ROUNDUP
NATIONAL WEATHER SERVICE SALT LAKE CITY UT
900 AM MDT WED JUL 23 2014

UTZ001>011-023>025-231600-

NORTHERN UTAH

CITY           SKY/WX    TMP DP  RH WIND       PRES   REMARKS
HILL AFB       SUNNY     77  37  23 E14       30.19
LOGAN          NOT AVBL
OGDEN          SUNNY     77  39  25 S5        30.16R
PROVO AIRPORT  MOSUNNY   73  41  31 E7        30.22R
SALT LAKE CITY MOSUNNY   83  42  23 SE10      30.13R
VERNAL         SUNNY     75  34  22 W3        30.29S
WENDOVER       SUNNY     81  28  15 NE6       30.14S
HEBER CITY     MOSUNNY   64  43  45 CALM      30.31S
WEST JORDAN    SUNNY     88  46  23 SE14      30.18R

$$

UTZ012>022-026-027-231600-

SOUTHERN UTAH

CITY           SKY/WX    TMP DP  RH WIND       PRES   REMARKS
BRYCE CANYON   MOSUNNY   74  39  28 VRB3      30.48R
CEDAR CITY     MOSUNNY   75  35  23 CALM      30.28S
MILFORD        SUNNY     75  41  29 S7        30.23R
MOAB/CYNLANDS  SUNNY     88  43  20 S5        30.20S
PRICE          MOSUNNY   83  25  12 SE8       30.33S
ST GEORGE      MOSUNNY   82  30  15 CALM      30.11R
KANAB            N/A     79  39  24 NW6       30.28S

$$

REGIONAL REPORTS     COLORADO/ARIZONA

CITY           SKY/WX    TMP DP  RH WIND       PRES   REMARKS
CRAIG, CO      SUNNY     71  43  36 NE14      30.38S
GRAND JUNCTION SUNNY     83  38  20 SE16      30.27R
RIFLE          SUNNY     73  44  35 NW3       30.34F
MONTROSE       MOSUNNY   82  44  26 SE3       30.37S
CORTEZ         SUNNY     82  44  26 CALM      30.38S
PAGE, AZ       MOSUNNY   88  37  16 NW3       30.20R
GRAND CANYON   MOSUNNY   77  36  22 CALM      30.40R SMOKE
KINGMAN        SUNNY     86  33  15 SE3       30.12R
FLAGSTAFF      MOSUNNY   69  47  45 CALM      30.44R

$$

REGIONAL REPORTS    NEVADA/IDAHO/WYOMING

CITY           SKY/WX    TMP DP  RH WIND       PRES   REMARKS
LAS VEGAS, NV  SUNNY     89  31  12 S6        29.97R
ELY            SUNNY     73  26  17 S7        30.30S
ELKO           SUNNY     70  41  34 E5        30.20R
POCATELLO, ID  SUNNY     73  47  39 W12       30.20R
BURLEY         MOSUNNY   73  47  39 SW6       30.15R
EVANSTON, WY   SUNNY     73  30  20 SW5       30.39R
ROCK SPRINGS   SUNNY     72  24  16 CALM      30.38R

$$


USA.gov is the U.S. government's official web portal to all federal, state and local government web resources and services.